This demonstration page uses our WeatherBlox Daily Observations layout. Learn more.

Left ArrowRight Arrow

38.20091, -84.87328

Hourly Observations for February 28, 2018

Temp ( °F °C ) Dew Point ( °F °C ) Humidity (%) Winds ( mph kmh ) Pressure ( in mb ) Visibility ( mi km ) Precip ( " mm )
12:53 am 00:53 Clear 54 12.2 34 1.1 47 47 S 9 15 30.04 1017 10 16 0.00 0.00
1:53 am 01:53 Clear 55 12.8 36 2.2 49 49 S 8 13 30.02 1017 10 16 0.00 0.00
2:53 am 02:53 Partly Cloudy 58 14.4 37 2.8 46 46 SSW 13 20 30.01 1016 10 16 0.00 0.00
3:53 am 03:53 Mostly Cloudy 57 13.9 38 3.3 49 49 S 7 11 29.99 1016 10 16 0.00 0.00
4:53 am 04:53 Cloudy 56 13.3 38 3.3 51 51 S 5 7 29.99 1016 10 16 0.00 0.00
5:53 am 05:53 Cloudy 57 13.9 43 6.1 60 60 SSW 12 19 30.01 1016 10 16 0.00 0.00
6:53 am 06:53 Cloudy 54 12.2 45 7.2 72 72 S 13 20 30.00 1016 10 16 0.00 0.00
7:53 am 07:53 Cloudy 53 11.7 46 7.8 77 77 S 12 19 30.00 1016 10 16 0.00 0.00
8:07 am 08:07 Cloudy 53 11.7 46 7.8 77 77 S 8 13 30.00 1016 10 16 0.00 0.00
8:44 am 08:44 Cloudy 53 11.7 47 8.3 80 80 S 12 19 30.00 1016 10 16 0.00 0.00
8:53 am 08:53 Cloudy 53 11.7 47 8.3 80 80 SSE 10 17 30.00 1016 10 16 0.00 0.00
9:23 am 09:23 Cloudy 53 11.7 47 8.3 80 80 S 14 22 30.00 1016 10 16 0.00 0.00
9:53 am 09:53 Cloudy 53 11.7 47 8.3 80 80 S 12 19 30.00 1016 10 16 0.00 0.00
10:53 am 10:53 Cloudy with Haze 52 11.1 47 8.3 83 83 SE 10 17 29.99 1016 4 6 0.00 0.00
11:20 am 11:20 Cloudy with Light Rain 51 10.6 48 8.9 89 89 SE 12 19 29.97 1015 5 8 0.00 0.03
11:53 am 11:53 Cloudy 51 10.6 48 8.9 89 89 SSE 9 15 29.96 1015 8 13 0.01 0.25
12:24 pm 12:24 Cloudy 52 11.1 49 9.4 89 89 S 6 9 29.97 1015 10 16 0.00 0.03
12:50 pm 12:50 Cloudy 52 11 48 9 88 88 S 7 11 29.94 1014 7 11 0.00 0.03
12:53 pm 12:53 Cloudy 53 11.7 49 9.4 86 86 S 7 11 29.94 1014 7 11 0.00 0.03
1:53 pm 13:53 Cloudy with Light Rain 53 11.7 50 10 89 89 SSE 5 7 29.91 1013 8 13 0.01 0.25
2:53 pm 14:53 Cloudy with Light Rain 54 12.2 51 10.6 90 90 E 3 6 29.89 1012 8 13 0.02 0.51
3:37 pm 15:37 Cloudy with Light Rain 54 12.2 51 10.6 90 90 Calm 29.91 1013 6 10 0.00 0.03
3:44 pm 15:44 Cloudy with Rain 54 12.2 51 10.6 90 90 Calm 29.88 1012 4 6 0.02 0.51
3:47 pm 15:47 Cloudy with Rain 54 12 52 11 94 94 Calm 29.91 1013 3 4 0.02 0.51
3:53 pm 15:53 Cloudy with Light Rain 54 12.2 51 10.6 90 90 ESE 5 7 29.88 1012 3 4 0.03 0.76
4:02 pm 16:02 Cloudy with Light Rain 54 12.2 51 10.6 90 90 ESE 5 7 29.88 1012 5 8 0.01 0.25
4:34 pm 16:34 Cloudy 55 12.8 51 10.6 87 87 E 5 7 29.88 1012 9 14 0.01 0.25
4:53 pm 16:53 Cloudy 55 12.8 51 10.6 87 87 E 3 6 29.86 1011 10 16 0.01 0.25
5:34 pm 17:34 Cloudy 55 12.8 52 11.1 90 90 ESE 6 9 29.85 1011 9 14 0.00 0.00
5:53 pm 17:53 Cloudy 55 12.8 52 11.1 90 90 ESE 3 6 29.85 1011 8 13 0.00 0.00
6:53 pm 18:53 Cloudy 55 12.8 52 11.1 90 90 SE 3 6 29.83 1010 8 13 0.00 0.00
7:53 pm 19:53 Cloudy 56 13.3 52 11.1 87 87 Calm 29.83 1010 10 16 0.00 0.00
8:53 pm 20:53 Cloudy 56 13.3 52 11.1 87 87 SSW 8 13 29.83 1010 10 16 0.00 0.00
9:16 pm 21:16 Cloudy 56 13.3 53 11.7 90 90 S 5 7 29.83 1010 10 16 0.00 0.00
9:53 pm 21:53 Cloudy 57 13.9 53 11.7 87 87 SSW 7 11 29.82 1010 10 16 0.00 0.00
10:53 pm 22:53 Cloudy 57 13.9 53 11.7 87 87 S 9 15 29.81 1009 10 16 0.00 0.00
11:05 pm 23:05 Cloudy 57 13.9 53 11.7 87 87 S 8 13 29.80 1009 10 16 0.00 0.00
11:28 pm 23:28 Mostly Cloudy 57 13.9 53 11.7 87 87 S 8 13 29.80 1009 10 16 0.00 0.00
11:45 pm 23:45 Mostly Cloudy 57 13.9 53 11.7 87 87 S 7 11 29.80 1009 10 16 0.00 0.00
11:53 pm 23:53 Mostly Cloudy 57 13.9 53 11.7 87 87 S 8 13 29.79 1009 10 16 0.00 0.00

Powered by AerisWeather